Simultaneous Nadir Overpasses (SNOs) Predictions

Prediction of SNOs between METOP-B and NOAA-19 Satellite Orbit:

Table of predicted SNOs for the next 14.0 days since TLE Epoch: 10/25/2016
Index Date (METOP-B) Time (METOP-B) Lat,Lon (METOP-B) SZA (METOP-B ) Date (NOAA-19) Time (NOAA-19) Lat,Lon (NOAA-19) SZA (NOAA-19 ) Distance(km) Time Diff (sec)
1 11/01/2016 06:44:27 76.56, 81.40 91.15 11/01/2016 06:43:13 76.54, 80.99 91.12 10.80 74
2 11/01/2016 07:35:10 -76.48,-111.56 88.92 11/01/2016 07:34:07 -76.48,-111.51 88.93 1.45 63
3 11/01/2016 08:25:50 76.50, 55.83 91.11 11/01/2016 08:25:13 76.46, 55.81 91.07 3.78 37
4 11/01/2016 09:16:32 -76.46,-136.97 88.92 11/01/2016 09:16:08 -76.45,-136.86 88.94 3.12 24
5 11/01/2016 10:07:12 76.48, 30.42 91.11 11/01/2016 10:07:15 76.47, 30.28 91.10 3.85 3
6 11/01/2016 10:57:54 -76.44,-162.37 88.92 11/01/2016 10:58:10 -76.45,-162.39 88.91 1.10 16
7 11/01/2016 11:48:35 76.41, 4.85 91.06 11/01/2016 11:49:16 76.43, 4.92 91.09 2.56 41
8 11/01/2016 12:39:16 -76.43, 172.22 88.92 11/01/2016 12:40:11 -76.42, 172.25 88.92 1.43 55
9 11/01/2016 13:30:03 76.12, -21.53 90.77 11/01/2016 13:31:12 76.17, -19.60 90.88 51.67 69




NCC Satellite Simultaneous Nadir Overpasses (SNOs) Prediction Service
